Location: Tierra del Sol
(32.6128°N, 116.3319°W)
Time: 16:34:39
(UTC-08:00)

Envisat - Visible Passes

Search period start: 13 December 2018 00:00
Search period end: 23 December 2018 00:00
Orbit: 764 x 766 km, 98.2° (Epoch: 13 December)

Date Brightness Start Highest point End Pass type
(mag) Time Alt. Az. Time Alt. Az. Time Alt. Az.
13 Dec 2.8 18:30:32 10° SSE 18:35:33 68° ENE 18:40:36 10° N visible
13 Dec 6.0 20:14:22 10° W 20:14:56 10° W 20:15:31 10° W visible
14 Dec 3.8 17:54:44 10° SE 17:59:00 28° ENE 18:03:17 10° NNE visible
14 Dec 4.9 19:33:42 10° SSW 19:37:55 26° W 19:42:09 10° NW visible
15 Dec 6.1 06:09:30 10° ENE 06:12:00 14° E 06:14:30 10° ESE visible
15 Dec 4.6 17:20:45 10° E 17:22:40 12° ENE 17:24:34 10° NE visible
15 Dec 3.3 18:56:03 10° S 19:01:03 65° WSW 19:06:07 10° NNW visible
16 Dec 3.0 18:19:29 10° SSE 18:24:23 52° ENE 18:29:19 10° N visible
16 Dec 5.8 20:01:05 10° WSW 20:03:38 14° W 20:06:13 10° WNW visible
17 Dec 4.0 17:44:04 10° ESE 17:47:54 22° ENE 17:51:45 10° NNE visible
17 Dec 4.5 19:22:06 10° SSW 19:26:40 34° W 19:31:15 10° NNW visible
18 Dec 2.9 18:44:48 10° S 18:49:52 84° WSW 18:54:58 10° NNW visible
19 Dec 3.3 18:08:33 10° SE 18:13:15 40° ENE 18:17:58 10° N visible
19 Dec 5.5 19:48:55 10° SW 19:52:21 18° W 19:55:49 10° NW visible
20 Dec 4.3 17:33:34 10° ESE 17:36:49 17° ENE 17:40:04 10° NNE visible
20 Dec 4.0 19:10:37 10° S 19:15:26 44° W 19:20:17 10° NNW visible
21 Dec 2.8 18:33:38 10° SSE 18:38:41 75° ENE 18:43:46 10° N visible
22 Dec 3.6 17:57:42 10° SE 18:02:07 31° ENE 18:06:33 10° N visible
22 Dec 5.1 19:37:04 10° SSW 19:41:05 24° W 19:45:08 10° NW visible
